Location: Capvern
(43.1036°N, 0.3160°E)
Time: 06:41:05
(UTC+00:00)

Cosmos 489 Rocket - Pass Details

Date: 05 June 2022
Orbit: 952 x 983 km, 74.0° (Epoch: 03 July)

Event Time Altitude Azimuth Distance (km) Brightness Sun altitude
Rises 02:02:37 0° 340° (NNW) 3,651 8.1 -18.3°
Reaches altitude 10° 02:05:09 10° 341° (NNW) 2,705 7.4 -18.1°
Maximum altitude 02:11:26 84° 69° (ENE) 977 4.5 -17.5°
Drops below altitude 10° 02:17:43 10° 159° (SSE) 2,709 6.5 -16.8°
Enters shadow 02:18:49 - 159° (SSE) 3,115 6.8 -16.7°
